Tracking 30986 objects as of 9-Jul-2025
HD Live streaming from Space Station
objects crossing your sky now

CZ-6A DEB

Track CZ-6A DEB now!
10-day predictions


NORAD ID: 56648
Int'l Code: 2022-151AFY
Perigee: 830.9 km
Apogee: 904.7 km
Inclination: 98.8 °
Period: 102.2 minutes
Semi major axis: 7238 km
RCS: Unknown
Launch date: November 11, 2022
Source: People's Republic of China (PRC)
Launch site: Taiyaun Space Center, China (TSC)

Note: This is SATELLITE DEBRIS
Your satellite tracking list
Your tracking list is empty




NASA's NSSDC Master Catalog

Two Line Element Set (TLE):
1 56648U 22151AFY 25183.73790319  .00000220  00000-0  14897-3 0  9994
2 56648  98.8139 181.6694 0050971 259.0674 100.4759 14.09621142112931
Source of the keplerian elements: AFSPC